Year,Month,Day,Hour,Minute,Value (Times are PST for temperature in C)
2012,05,19,00,00,8.80
2012,05,19,00,01,8.70
2012,05,19,00,02,8.70
2012,05,19,00,03,8.70
2012,05,19,00,04,8.70
2012,05,19,00,05,8.70
2012,05,19,00,06,8.70
2012,05,19,00,07,8.70
2012,05,19,00,08,8.70
2012,05,19,00,09,8.70
2012,05,19,00,10,8.70
2012,05,19,00,11,8.70
2012,05,19,00,12,8.70
2012,05,19,00,13,8.70
2012,05,19,00,14,8.70
2012,05,19,00,15,8.70
2012,05,19,00,16,8.70
2012,05,19,00,17,8.70
2012,05,19,00,18,8.70
2012,05,19,00,19,8.70
2012,05,19,00,20,8.70
2012,05,19,00,21,8.70
2012,05,19,00,22,8.70
2012,05,19,00,23,8.70
2012,05,19,00,24,8.70
2012,05,19,00,25,8.70
2012,05,19,00,26,8.70
2012,05,19,00,27,8.70
2012,05,19,00,28,8.70
2012,05,19,00,29,8.70
2012,05,19,00,30,8.70
2012,05,19,00,31,8.60
2012,05,19,00,32,8.60
2012,05,19,00,33,8.60
2012,05,19,00,34,8.60
2012,05,19,00,35,8.60
2012,05,19,00,36,8.60
2012,05,19,00,37,8.50
2012,05,19,00,38,8.50
2012,05,19,00,39,8.50
2012,05,19,00,40,8.50
2012,05,19,00,41,8.50
2012,05,19,00,42,8.40
2012,05,19,00,43,8.40
2012,05,19,00,44,8.40
2012,05,19,00,45,8.40
2012,05,19,00,46,8.30
2012,05,19,00,47,8.30
2012,05,19,00,48,8.30
2012,05,19,00,49,8.30
2012,05,19,00,50,8.30
2012,05,19,00,51,8.20
2012,05,19,00,52,8.20
2012,05,19,00,53,8.20
2012,05,19,00,54,8.20
2012,05,19,00,55,8.20
2012,05,19,00,56,8.20
2012,05,19,00,57,8.20
2012,05,19,00,58,8.20
2012,05,19,00,59,8.20
2012,05,19,01,00,8.20
2012,05,19,01,01,8.20
2012,05,19,01,02,8.20
2012,05,19,01,03,8.20
2012,05,19,01,04,8.20
2012,05,19,01,05,8.20
2012,05,19,01,06,8.20
2012,05,19,01,07,8.20
2012,05,19,01,08,8.10
2012,05,19,01,09,8.10
2012,05,19,01,10,8.10
2012,05,19,01,11,8.10
2012,05,19,01,12,8.10
2012,05,19,01,13,8.10
2012,05,19,01,14,8.10
2012,05,19,01,15,8.10
2012,05,19,01,16,8.10
2012,05,19,01,17,8.10
2012,05,19,01,18,8.10
2012,05,19,01,19,8.10
2012,05,19,01,20,8.20
2012,05,19,01,21,8.20
2012,05,19,01,22,8.20
2012,05,19,01,23,8.20
2012,05,19,01,24,8.20
2012,05,19,01,25,8.20
2012,05,19,01,26,8.20
2012,05,19,01,27,8.20
2012,05,19,01,28,8.10
2012,05,19,01,29,8.10
2012,05,19,01,30,8.10
2012,05,19,01,31,8.10
2012,05,19,01,32,8.10
2012,05,19,01,33,8.10
2012,05,19,01,34,8.00
2012,05,19,01,35,8.00
2012,05,19,01,36,8.00
2012,05,19,01,37,8.00
2012,05,19,01,38,8.00
2012,05,19,01,39,8.00
2012,05,19,01,40,8.00
2012,05,19,01,41,7.90
2012,05,19,01,42,7.90
2012,05,19,01,43,7.90
2012,05,19,01,44,7.90
2012,05,19,01,45,7.90
2012,05,19,01,46,7.90
2012,05,19,01,47,7.90
2012,05,19,01,48,7.90
2012,05,19,01,49,7.90
2012,05,19,01,50,7.90
2012,05,19,01,51,7.90
2012,05,19,01,52,7.90
2012,05,19,01,53,7.80
2012,05,19,01,54,7.80
2012,05,19,01,55,7.80
2012,05,19,01,56,7.80
2012,05,19,01,57,7.80
2012,05,19,01,58,7.80
2012,05,19,01,59,7.80
2012,05,19,02,00,7.80
2012,05,19,02,01,7.80
2012,05,19,02,02,7.80
2012,05,19,02,03,7.70
2012,05,19,02,04,7.70
2012,05,19,02,05,7.70
2012,05,19,02,06,7.70
2012,05,19,02,07,7.70
2012,05,19,02,08,7.70
2012,05,19,02,09,7.60
2012,05,19,02,10,7.60
2012,05,19,02,11,7.60
2012,05,19,02,12,7.60
2012,05,19,02,13,7.60
2012,05,19,02,14,7.60
2012,05,19,02,15,7.50
2012,05,19,02,16,7.50
2012,05,19,02,17,7.50
2012,05,19,02,18,7.50
2012,05,19,02,19,7.50
2012,05,19,02,20,7.50
2012,05,19,02,21,7.50
2012,05,19,02,22,7.50
2012,05,19,02,23,7.50
2012,05,19,02,24,7.50
2012,05,19,02,25,7.50
2012,05,19,02,26,7.40
2012,05,19,02,27,7.40
2012,05,19,02,28,7.40
2012,05,19,02,29,7.40
2012,05,19,02,30,7.40
2012,05,19,02,31,7.30
2012,05,19,02,32,7.30
2012,05,19,02,33,7.30
2012,05,19,02,34,7.30
2012,05,19,02,35,7.30
2012,05,19,02,36,7.30
2012,05,19,02,37,7.30
2012,05,19,02,38,7.30
2012,05,19,02,39,7.30
2012,05,19,02,40,7.30
2012,05,19,02,41,7.30
2012,05,19,02,42,7.30
2012,05,19,02,43,7.30
2012,05,19,02,44,7.30
2012,05,19,02,45,7.30
2012,05,19,02,46,7.30
2012,05,19,02,47,7.30
2012,05,19,02,48,7.30
2012,05,19,02,49,7.30
2012,05,19,02,50,7.30
2012,05,19,02,51,7.30
2012,05,19,02,52,7.30
2012,05,19,02,53,7.30
2012,05,19,02,54,7.30
2012,05,19,02,55,7.30
2012,05,19,02,56,7.30
2012,05,19,02,57,7.30
2012,05,19,02,58,7.30
2012,05,19,02,59,7.30
2012,05,19,03,00,7.30
2012,05,19,03,01,7.30
2012,05,19,03,02,7.30
2012,05,19,03,03,7.30
2012,05,19,03,04,7.30
2012,05,19,03,05,7.30
2012,05,19,03,06,7.30
2012,05,19,03,07,7.30
2012,05,19,03,08,7.30
2012,05,19,03,09,7.30
2012,05,19,03,10,7.30
2012,05,19,03,11,7.30
2012,05,19,03,12,7.30
2012,05,19,03,13,7.30
2012,05,19,03,14,7.30
2012,05,19,03,15,7.30
2012,05,19,03,16,7.30
2012,05,19,03,17,7.30
2012,05,19,03,18,7.30
2012,05,19,03,19,7.30
2012,05,19,03,20,7.30
2012,05,19,03,21,7.30
2012,05,19,03,22,7.30
2012,05,19,03,23,7.30
2012,05,19,03,24,7.30
2012,05,19,03,25,7.40
2012,05,19,03,26,7.40
2012,05,19,03,27,7.40
2012,05,19,03,28,7.40
2012,05,19,03,29,7.30
2012,05,19,03,30,7.30
2012,05,19,03,31,7.30
2012,05,19,03,32,7.30
2012,05,19,03,33,7.30
2012,05,19,03,34,7.30
2012,05,19,03,35,7.30
2012,05,19,03,36,7.30
2012,05,19,03,37,7.30
2012,05,19,03,38,7.30
2012,05,19,03,39,7.30
2012,05,19,03,40,7.30
2012,05,19,03,41,7.30
2012,05,19,03,42,7.30
2012,05,19,03,43,7.30
2012,05,19,03,44,7.30
2012,05,19,03,45,7.30
2012,05,19,03,46,7.30
2012,05,19,03,47,7.30
2012,05,19,03,48,7.30
2012,05,19,03,49,7.30
2012,05,19,03,50,7.30
2012,05,19,03,51,7.30
2012,05,19,03,52,7.30
2012,05,19,03,53,7.30
2012,05,19,03,54,7.30
2012,05,19,03,55,7.30
2012,05,19,03,56,7.30
2012,05,19,03,57,7.20
2012,05,19,03,58,7.20
2012,05,19,03,59,7.20
2012,05,19,04,00,7.30
2012,05,19,04,01,7.30
2012,05,19,04,02,7.30
2012,05,19,04,03,7.30
2012,05,19,04,04,7.20
2012,05,19,04,05,7.20
2012,05,19,04,06,7.20
2012,05,19,04,07,7.20
2012,05,19,04,08,7.10
2012,05,19,04,09,7.10
2012,05,19,04,10,7.00
2012,05,19,04,11,7.00
2012,05,19,04,12,6.90
2012,05,19,04,13,6.90
2012,05,19,04,14,6.80
2012,05,19,04,15,6.80
2012,05,19,04,16,6.80
2012,05,19,04,17,6.80
2012,05,19,04,18,6.80
2012,05,19,04,19,6.80
2012,05,19,04,20,6.80
2012,05,19,04,21,6.90
2012,05,19,04,22,6.90
2012,05,19,04,23,6.90
2012,05,19,04,24,6.90
2012,05,19,04,25,6.90
2012,05,19,04,26,7.00
2012,05,19,04,27,7.00
2012,05,19,04,28,7.00
2012,05,19,04,29,7.00
2012,05,19,04,30,7.00
2012,05,19,04,31,7.00
2012,05,19,04,32,7.00
2012,05,19,04,33,7.00
2012,05,19,04,34,7.00
2012,05,19,04,35,7.00
2012,05,19,04,36,7.00
2012,05,19,04,37,7.00
2012,05,19,04,38,7.00
2012,05,19,04,39,7.00
2012,05,19,04,40,7.00
2012,05,19,04,41,7.00
2012,05,19,04,42,7.00
2012,05,19,04,43,7.00
2012,05,19,04,44,7.00
2012,05,19,04,45,7.00
2012,05,19,04,46,7.00
2012,05,19,04,47,7.00
2012,05,19,04,48,7.00
2012,05,19,04,49,7.00
2012,05,19,04,50,7.10
2012,05,19,04,51,7.10
2012,05,19,04,52,7.20
2012,05,19,04,53,7.20
2012,05,19,04,54,7.30
2012,05,19,04,55,7.30
2012,05,19,04,56,7.40
2012,05,19,04,57,7.40
2012,05,19,04,58,7.50
2012,05,19,04,59,7.60
2012,05,19,05,00,7.60
2012,05,19,05,01,7.70
2012,05,19,05,02,7.70
2012,05,19,05,03,7.80
2012,05,19,05,04,7.80
2012,05,19,05,05,7.80
2012,05,19,05,06,7.80
2012,05,19,05,07,7.80
2012,05,19,05,08,7.80
2012,05,19,05,09,7.80
2012,05,19,05,10,7.80
2012,05,19,05,11,7.80
2012,05,19,05,12,7.80
2012,05,19,05,13,7.80
2012,05,19,05,14,7.80
2012,05,19,05,15,7.80
2012,05,19,05,16,7.80
2012,05,19,05,17,7.80
2012,05,19,05,18,7.80
2012,05,19,05,19,7.80
2012,05,19,05,20,7.80
2012,05,19,05,21,7.80
2012,05,19,05,22,7.80
2012,05,19,05,23,7.80
2012,05,19,05,24,7.80
2012,05,19,05,25,7.70
2012,05,19,05,26,7.70
2012,05,19,05,27,7.70
2012,05,19,05,28,7.60
2012,05,19,05,29,7.60
2012,05,19,05,30,7.60
2012,05,19,05,31,7.60
2012,05,19,05,32,7.60
2012,05,19,05,33,7.60
2012,05,19,05,34,7.60
2012,05,19,05,35,7.60
2012,05,19,05,36,7.60
2012,05,19,05,37,7.60
2012,05,19,05,38,7.60
2012,05,19,05,39,7.60
2012,05,19,05,40,7.60
2012,05,19,05,41,7.60
2012,05,19,05,42,7.60
2012,05,19,05,43,7.60
2012,05,19,05,44,7.60
2012,05,19,05,45,7.60
2012,05,19,05,46,7.60
2012,05,19,05,47,7.60
2012,05,19,05,48,7.60
2012,05,19,05,49,7.60
2012,05,19,05,50,7.60
2012,05,19,05,51,7.60
2012,05,19,05,52,7.60
2012,05,19,05,53,7.70
2012,05,19,05,54,7.70
2012,05,19,05,55,7.80
2012,05,19,05,56,7.80
2012,05,19,05,57,7.90
2012,05,19,05,58,7.90
2012,05,19,05,59,8.00
2012,05,19,06,00,8.00
2012,05,19,06,01,8.10
2012,05,19,06,02,8.10
2012,05,19,06,03,8.10
2012,05,19,06,04,8.20
2012,05,19,06,05,8.20
2012,05,19,06,06,8.20
2012,05,19,06,07,8.20
2012,05,19,06,08,8.20
2012,05,19,06,09,8.20
2012,05,19,06,10,8.20
2012,05,19,06,11,8.30
2012,05,19,06,12,8.30
2012,05,19,06,13,8.30
2012,05,19,06,14,8.40
2012,05,19,06,15,8.40
2012,05,19,06,16,8.40
2012,05,19,06,17,8.50
2012,05,19,06,18,8.50
2012,05,19,06,19,8.50
2012,05,19,06,20,8.50
2012,05,19,06,21,8.50
2012,05,19,06,22,8.60
2012,05,19,06,23,8.60
2012,05,19,06,24,8.60
2012,05,19,06,25,8.60
2012,05,19,06,26,8.60
2012,05,19,06,27,8.60
2012,05,19,06,28,8.60
2012,05,19,06,29,8.60
2012,05,19,06,30,8.60
2012,05,19,06,31,8.60
2012,05,19,06,32,8.70
2012,05,19,06,33,8.70
2012,05,19,06,34,8.70
2012,05,19,06,35,8.70
2012,05,19,06,36,8.80
2012,05,19,06,37,8.80
2012,05,19,06,38,8.90
2012,05,19,06,39,8.90
2012,05,19,06,40,8.90
2012,05,19,06,41,8.90
2012,05,19,06,42,8.90
2012,05,19,06,43,8.90
2012,05,19,06,44,8.90
2012,05,19,06,45,8.90
2012,05,19,06,46,9.00
2012,05,19,06,47,9.00
2012,05,19,06,48,9.00
2012,05,19,06,49,9.10
2012,05,19,06,50,9.10
2012,05,19,06,51,9.10
2012,05,19,06,52,9.10
2012,05,19,06,53,9.20
2012,05,19,06,54,9.20
2012,05,19,06,55,9.20
2012,05,19,06,56,9.20
2012,05,19,06,57,9.20
2012,05,19,06,58,9.20
2012,05,19,06,59,9.20
2012,05,19,07,00,9.20
2012,05,19,07,01,9.20
2012,05,19,07,02,9.10
2012,05,19,07,03,9.10
2012,05,19,07,04,9.00
2012,05,19,07,05,9.00
2012,05,19,07,06,9.00
2012,05,19,07,07,9.00
2012,05,19,07,08,9.00
2012,05,19,07,09,9.00
2012,05,19,07,10,9.00
2012,05,19,07,11,9.00
2012,05,19,07,12,9.10
2012,05,19,07,13,9.10
2012,05,19,07,14,9.10
2012,05,19,07,15,9.20
2012,05,19,07,16,9.20
2012,05,19,07,17,9.30
2012,05,19,07,18,9.30
2012,05,19,07,19,9.30
2012,05,19,07,20,9.40
2012,05,19,07,21,9.40
2012,05,19,07,22,9.50
2012,05,19,07,23,9.50
2012,05,19,07,24,9.60
2012,05,19,07,25,9.70
2012,05,19,07,26,9.90
2012,05,19,07,27,10.00
2012,05,19,07,28,10.10
2012,05,19,07,29,10.30
2012,05,19,07,30,10.40
2012,05,19,07,31,10.50
2012,05,19,07,32,10.60
2012,05,19,07,33,10.60
2012,05,19,07,34,10.60
2012,05,19,07,35,10.60
2012,05,19,07,36,10.70
2012,05,19,07,37,10.80
2012,05,19,07,38,10.90
2012,05,19,07,39,10.90
2012,05,19,07,40,10.90
2012,05,19,07,41,10.90
2012,05,19,07,42,10.90
2012,05,19,07,43,10.90
2012,05,19,07,44,11.00
2012,05,19,07,45,11.10
2012,05,19,07,46,11.10
2012,05,19,07,47,11.20
2012,05,19,07,48,11.20
2012,05,19,07,49,11.20
2012,05,19,07,50,11.20
2012,05,19,07,51,11.20
2012,05,19,07,52,11.20
2012,05,19,07,53,11.30
2012,05,19,07,54,11.20
2012,05,19,07,55,11.20
2012,05,19,07,56,11.20
2012,05,19,07,57,11.20
2012,05,19,07,58,11.20
2012,05,19,07,59,11.10
2012,05,19,08,00,11.10
2012,05,19,08,01,10.90
2012,05,19,08,02,10.90
2012,05,19,08,03,10.80
2012,05,19,08,04,10.80
2012,05,19,08,05,10.70
2012,05,19,08,06,10.70
2012,05,19,08,07,10.70
2012,05,19,08,08,10.80
2012,05,19,08,09,10.80
2012,05,19,08,10,10.90
2012,05,19,08,11,10.80
2012,05,19,08,12,10.70
2012,05,19,08,13,10.60
2012,05,19,08,14,10.50
2012,05,19,08,15,10.50
2012,05,19,08,16,10.60
2012,05,19,08,17,10.60
2012,05,19,08,18,10.60
2012,05,19,08,19,10.60
2012,05,19,08,20,10.70
2012,05,19,08,21,10.70
2012,05,19,08,22,10.70
2012,05,19,08,23,10.60
2012,05,19,08,24,10.60
2012,05,19,08,25,10.60
2012,05,19,08,26,10.60
2012,05,19,08,27,10.50
2012,05,19,08,28,10.40
2012,05,19,08,29,10.40
2012,05,19,08,30,10.40
2012,05,19,08,31,10.40
2012,05,19,08,32,10.40
2012,05,19,08,33,10.40
2012,05,19,08,34,10.40
2012,05,19,08,35,10.50
2012,05,19,08,36,10.60
2012,05,19,08,37,10.60
2012,05,19,08,38,10.60
2012,05,19,08,39,10.60
2012,05,19,08,40,10.60
2012,05,19,08,41,10.60
2012,05,19,08,42,10.60
2012,05,19,08,43,10.60
2012,05,19,08,44,10.60
2012,05,19,08,45,10.60
2012,05,19,08,46,10.60
2012,05,19,08,47,10.50
2012,05,19,08,48,10.40
2012,05,19,08,49,10.40
2012,05,19,08,50,10.40
2012,05,19,08,51,10.50
2012,05,19,08,52,10.60
2012,05,19,08,53,10.60
2012,05,19,08,54,10.60
2012,05,19,08,55,10.60
2012,05,19,08,56,10.60
2012,05,19,08,57,10.60
2012,05,19,08,58,10.70
2012,05,19,08,59,10.60
2012,05,19,09,00,10.70
2012,05,19,09,01,10.70
2012,05,19,09,02,10.80
2012,05,19,09,03,10.80
2012,05,19,09,04,10.80
2012,05,19,09,05,10.90
2012,05,19,09,06,10.90
2012,05,19,09,07,10.90
2012,05,19,09,08,11.00
2012,05,19,09,09,11.10
2012,05,19,09,10,11.30
2012,05,19,09,11,11.30
2012,05,19,09,12,11.40
2012,05,19,09,13,11.60
2012,05,19,09,14,11.60
2012,05,19,09,15,11.60
2012,05,19,09,16,11.50
2012,05,19,09,17,11.40
2012,05,19,09,18,11.30
2012,05,19,09,19,11.20
2012,05,19,09,20,11.20
2012,05,19,09,21,11.20
2012,05,19,09,22,11.10
2012,05,19,09,23,11.00
2012,05,19,09,24,10.90
2012,05,19,09,25,10.80
2012,05,19,09,26,10.80
2012,05,19,09,27,10.80
2012,05,19,09,28,10.90
2012,05,19,09,29,10.90
2012,05,19,09,30,11.00
2012,05,19,09,31,11.10
2012,05,19,09,32,11.10
2012,05,19,09,33,11.10
2012,05,19,09,34,11.10
2012,05,19,09,35,11.00
2012,05,19,09,36,10.90
2012,05,19,09,37,10.90
2012,05,19,09,38,10.90
2012,05,19,09,39,10.90
2012,05,19,09,40,10.90
2012,05,19,09,41,10.90
2012,05,19,09,42,10.90
2012,05,19,09,43,10.90
2012,05,19,09,44,10.90
2012,05,19,09,45,11.10
2012,05,19,09,46,11.10
2012,05,19,09,47,11.10
2012,05,19,09,48,11.10
2012,05,19,09,49,11.30
2012,05,19,09,50,11.40
2012,05,19,09,51,11.40
2012,05,19,09,52,11.40
2012,05,19,09,53,11.40
2012,05,19,09,54,11.30
2012,05,19,09,55,11.20
2012,05,19,09,56,11.10
2012,05,19,09,57,11.10
2012,05,19,09,58,11.10
2012,05,19,09,59,11.20
2012,05,19,10,00,11.30
2012,05,19,10,01,11.40
2012,05,19,10,02,11.50
2012,05,19,10,03,11.60
2012,05,19,10,04,11.60
2012,05,19,10,05,11.60
2012,05,19,10,06,11.60
2012,05,19,10,07,11.60
2012,05,19,10,08,11.60
2012,05,19,10,09,11.60
2012,05,19,10,10,11.70
2012,05,19,10,11,11.80
2012,05,19,10,12,11.70
2012,05,19,10,13,11.60
2012,05,19,10,14,11.60
2012,05,19,10,15,11.50
2012,05,19,10,16,11.40
2012,05,19,10,17,11.50
2012,05,19,10,18,11.60
2012,05,19,10,19,11.60
2012,05,19,10,20,11.70
2012,05,19,10,21,11.80
2012,05,19,10,22,11.90
2012,05,19,10,23,12.00
2012,05,19,10,24,12.00
2012,05,19,10,25,12.10
2012,05,19,10,26,12.20
2012,05,19,10,27,12.30
2012,05,19,10,28,12.30
2012,05,19,10,29,12.30
2012,05,19,10,30,12.30
2012,05,19,10,31,12.30
2012,05,19,10,32,12.30
2012,05,19,10,33,12.30
2012,05,19,10,34,12.30
2012,05,19,10,35,12.30
2012,05,19,10,36,12.20
2012,05,19,10,37,12.20
2012,05,19,10,38,12.10
2012,05,19,10,39,12.10
2012,05,19,10,40,12.00
2012,05,19,10,41,11.80
2012,05,19,10,42,11.80
2012,05,19,10,43,11.70
2012,05,19,10,44,11.80
2012,05,19,10,45,11.70
2012,05,19,10,46,11.60
2012,05,19,10,47,11.60
2012,05,19,10,48,11.50
2012,05,19,10,49,11.40
2012,05,19,10,50,11.40
2012,05,19,10,51,11.40
2012,05,19,10,52,11.40
2012,05,19,10,53,11.40
2012,05,19,10,54,11.50
2012,05,19,10,55,11.60
2012,05,19,10,56,11.60
2012,05,19,10,57,11.60
2012,05,19,10,58,11.60
2012,05,19,10,59,11.70
2012,05,19,11,00,11.70
2012,05,19,11,01,11.60
2012,05,19,11,02,11.60
2012,05,19,11,03,11.60
2012,05,19,11,04,11.60
2012,05,19,11,05,11.60
2012,05,19,11,06,11.60
2012,05,19,11,07,11.60
2012,05,19,11,08,11.60
2012,05,19,11,09,11.70
2012,05,19,11,10,11.70
2012,05,19,11,11,11.70
2012,05,19,11,12,11.80
2012,05,19,11,13,11.80
2012,05,19,11,14,11.90
2012,05,19,11,15,11.90
2012,05,19,11,16,11.80
2012,05,19,11,17,11.90
2012,05,19,11,18,12.00
2012,05,19,11,19,12.00
2012,05,19,11,20,12.00
2012,05,19,11,21,12.00
2012,05,19,11,22,12.10
2012,05,19,11,23,12.20
2012,05,19,11,24,12.20
2012,05,19,11,25,12.30
2012,05,19,11,26,12.30
2012,05,19,11,27,12.30
2012,05,19,11,28,12.40
2012,05,19,11,29,12.40
2012,05,19,11,30,12.50
2012,05,19,11,31,12.60
2012,05,19,11,32,12.70
2012,05,19,11,33,12.90
2012,05,19,11,34,13.00
2012,05,19,11,35,13.00
2012,05,19,11,36,13.10
2012,05,19,11,37,13.10
2012,05,19,11,38,13.20
2012,05,19,11,39,13.20
2012,05,19,11,40,13.20
2012,05,19,11,41,13.30
2012,05,19,11,42,13.30
2012,05,19,11,43,13.30
2012,05,19,11,44,13.40
2012,05,19,11,45,13.40
2012,05,19,11,46,13.30
2012,05,19,11,47,13.30
2012,05,19,11,48,13.20
2012,05,19,11,49,13.10
2012,05,19,11,50,13.00
2012,05,19,11,51,12.90
2012,05,19,11,52,12.80
2012,05,19,11,53,12.60
2012,05,19,11,54,12.50
2012,05,19,11,55,12.40
2012,05,19,11,56,12.50
2012,05,19,11,57,12.60
2012,05,19,11,58,12.70
2012,05,19,11,59,12.80
2012,05,19,12,00,12.90
2012,05,19,12,01,13.00
2012,05,19,12,02,13.10
2012,05,19,12,03,13.20
2012,05,19,12,04,13.30
2012,05,19,12,05,13.30
2012,05,19,12,06,13.30
2012,05,19,12,07,13.50
2012,05,19,12,08,13.50
2012,05,19,12,09,13.60
2012,05,19,12,10,13.70
2012,05,19,12,11,13.80
2012,05,19,12,12,13.90
2012,05,19,12,13,13.90
2012,05,19,12,14,14.00
2012,05,19,12,15,14.00
2012,05,19,12,16,14.00
2012,05,19,12,17,13.90
2012,05,19,12,18,13.90
2012,05,19,12,19,13.80
2012,05,19,12,20,13.70
2012,05,19,12,21,13.80
2012,05,19,12,22,13.70
2012,05,19,12,23,13.70
2012,05,19,12,24,13.60
2012,05,19,12,25,13.50
2012,05,19,12,26,13.50
2012,05,19,12,27,13.40
2012,05,19,12,28,13.40
2012,05,19,12,29,13.50
2012,05,19,12,30,13.50
2012,05,19,12,31,13.50
2012,05,19,12,32,13.60
2012,05,19,12,33,13.60
2012,05,19,12,34,13.60
2012,05,19,12,35,13.70
2012,05,19,12,36,13.70
2012,05,19,12,37,13.70
2012,05,19,12,38,13.70
2012,05,19,12,39,13.70
2012,05,19,12,40,13.70
2012,05,19,12,41,13.70
2012,05,19,12,42,13.70
2012,05,19,12,43,13.70
2012,05,19,12,44,13.70
2012,05,19,12,45,13.70
2012,05,19,12,46,13.70
2012,05,19,12,47,13.70
2012,05,19,12,48,13.70
2012,05,19,12,49,13.70
2012,05,19,12,50,13.70
2012,05,19,12,51,13.70
2012,05,19,12,52,13.70
2012,05,19,12,53,13.70
2012,05,19,12,54,13.70
2012,05,19,12,55,13.70
2012,05,19,12,56,13.70
2012,05,19,12,57,13.70
2012,05,19,12,58,13.70
2012,05,19,12,59,13.70
2012,05,19,13,00,13.80
2012,05,19,13,01,13.90
2012,05,19,13,02,14.00
2012,05,19,13,03,14.10
2012,05,19,13,04,14.20
2012,05,19,13,05,14.30
2012,05,19,13,06,14.50
2012,05,19,13,07,14.60
2012,05,19,13,08,14.60
2012,05,19,13,09,14.60
2012,05,19,13,10,14.60
2012,05,19,13,11,14.60
2012,05,19,13,12,14.60
2012,05,19,13,13,14.50
2012,05,19,13,14,14.50
2012,05,19,13,15,14.60
2012,05,19,13,16,14.60
2012,05,19,13,17,14.60
2012,05,19,13,18,14.70
2012,05,19,13,19,14.80
2012,05,19,13,20,14.70
2012,05,19,13,21,14.60
2012,05,19,13,22,14.40
2012,05,19,13,23,14.30
2012,05,19,13,24,14.20
2012,05,19,13,25,14.20
2012,05,19,13,26,14.20
2012,05,19,13,27,14.30
2012,05,19,13,28,14.40
2012,05,19,13,29,14.50
2012,05,19,13,30,14.60
2012,05,19,13,31,14.60
2012,05,19,13,32,14.70
2012,05,19,13,33,14.70
2012,05,19,13,34,14.80
2012,05,19,13,35,14.80
2012,05,19,13,36,14.80
2012,05,19,13,37,14.90
2012,05,19,13,38,15.00
2012,05,19,13,39,15.00
2012,05,19,13,40,14.90
2012,05,19,13,41,14.90
2012,05,19,13,42,14.80
2012,05,19,13,43,14.80
2012,05,19,13,44,14.80
2012,05,19,13,45,14.80
2012,05,19,13,46,14.80
2012,05,19,13,47,14.80
2012,05,19,13,48,14.90
2012,05,19,13,49,15.00
2012,05,19,13,50,15.00
2012,05,19,13,51,15.00
2012,05,19,13,52,14.90
2012,05,19,13,53,14.80
2012,05,19,13,54,14.80
2012,05,19,13,55,14.80
2012,05,19,13,56,14.80
2012,05,19,13,57,14.80
2012,05,19,13,58,14.90
2012,05,19,13,59,14.90
2012,05,19,14,00,14.80
2012,05,19,14,01,14.80
2012,05,19,14,02,14.80
2012,05,19,14,03,14.90
2012,05,19,14,04,14.80
2012,05,19,14,05,14.80
2012,05,19,14,06,14.80
2012,05,19,14,07,14.80
2012,05,19,14,08,14.80
2012,05,19,14,09,14.80
2012,05,19,14,10,14.70
2012,05,19,14,11,14.70
2012,05,19,14,12,14.60
2012,05,19,14,13,14.70
2012,05,19,14,14,14.80
2012,05,19,14,15,14.90
2012,05,19,14,16,15.10
2012,05,19,14,17,15.20
2012,05,19,14,18,15.30
2012,05,19,14,19,15.30
2012,05,19,14,20,15.30
2012,05,19,14,21,15.30
2012,05,19,14,22,15.30
2012,05,19,14,23,15.10
2012,05,19,14,24,15.10
2012,05,19,14,25,15.10
2012,05,19,14,26,15.20
2012,05,19,14,27,15.10
2012,05,19,14,28,15.10
2012,05,19,14,29,15.20
2012,05,19,14,30,15.20
2012,05,19,14,31,15.20
2012,05,19,14,32,15.20
2012,05,19,14,33,15.20
2012,05,19,14,34,15.30
2012,05,19,14,35,15.40
2012,05,19,14,36,15.50
2012,05,19,14,37,15.70
2012,05,19,14,38,15.90
2012,05,19,14,39,16.00
2012,05,19,14,40,16.10
2012,05,19,14,41,16.10
2012,05,19,14,42,15.90
2012,05,19,14,43,15.70
2012,05,19,14,44,15.50
2012,05,19,14,45,15.60
2012,05,19,14,46,15.60
2012,05,19,14,47,15.60
2012,05,19,14,48,15.60
2012,05,19,14,49,15.50
2012,05,19,14,50,15.40
2012,05,19,14,51,15.40
2012,05,19,14,52,15.50
2012,05,19,14,53,15.50
2012,05,19,14,54,15.50
2012,05,19,14,55,15.60
2012,05,19,14,56,15.60
2012,05,19,14,57,15.60
2012,05,19,14,58,15.50
2012,05,19,14,59,15.50
2012,05,19,15,00,15.50
2012,05,19,15,01,15.50
2012,05,19,15,02,15.50
2012,05,19,15,03,15.40
2012,05,19,15,04,15.30
2012,05,19,15,05,15.30
2012,05,19,15,06,15.40
2012,05,19,15,07,15.50
2012,05,19,15,08,15.50
2012,05,19,15,09,15.40
2012,05,19,15,10,15.40
2012,05,19,15,11,15.50
2012,05,19,15,12,15.60
2012,05,19,15,13,15.80
2012,05,19,15,14,15.80
2012,05,19,15,15,15.80
2012,05,19,15,16,15.90
2012,05,19,15,17,16.00
2012,05,19,15,18,16.10
2012,05,19,15,19,16.10
2012,05,19,15,20,16.10
2012,05,19,15,21,16.10
2012,05,19,15,22,16.20
2012,05,19,15,23,16.10
2012,05,19,15,24,16.00
2012,05,19,15,25,15.90
2012,05,19,15,26,15.80
2012,05,19,15,27,15.70
2012,05,19,15,28,15.80
2012,05,19,15,29,15.80
2012,05,19,15,30,15.80
2012,05,19,15,31,15.90
2012,05,19,15,32,16.10
2012,05,19,15,33,16.10
2012,05,19,15,34,16.00
2012,05,19,15,35,15.90
2012,05,19,15,36,15.80
2012,05,19,15,37,15.80
2012,05,19,15,38,15.80
2012,05,19,15,39,15.80
2012,05,19,15,40,15.80
2012,05,19,15,41,15.80
2012,05,19,15,42,15.80
2012,05,19,15,43,15.80
2012,05,19,15,44,16.00
2012,05,19,15,45,16.10
2012,05,19,15,46,16.20
2012,05,19,15,47,16.40
2012,05,19,15,48,16.40
2012,05,19,15,49,16.40
2012,05,19,15,50,16.40
2012,05,19,15,51,16.50
2012,05,19,15,52,16.60
2012,05,19,15,53,16.60
2012,05,19,15,54,16.50
2012,05,19,15,55,16.40
2012,05,19,15,56,16.40
2012,05,19,15,57,16.40
2012,05,19,15,58,16.40
2012,05,19,15,59,16.40
2012,05,19,16,00,16.40
2012,05,19,16,01,16.50
2012,05,19,16,02,16.70
2012,05,19,16,03,16.80
2012,05,19,16,04,17.00
2012,05,19,16,05,17.00
2012,05,19,16,06,17.10
2012,05,19,16,07,17.20
2012,05,19,16,08,17.30
2012,05,19,16,09,17.30
2012,05,19,16,10,17.40
2012,05,19,16,11,17.50
2012,05,19,16,12,17.50
2012,05,19,16,13,17.40
2012,05,19,16,14,17.10
2012,05,19,16,15,16.80
2012,05,19,16,16,16.60
2012,05,19,16,17,16.50
2012,05,19,16,18,16.40
2012,05,19,16,19,16.40
2012,05,19,16,20,16.40
2012,05,19,16,21,16.40
2012,05,19,16,22,16.60
2012,05,19,16,23,16.60
2012,05,19,16,24,16.60
2012,05,19,16,25,16.70
2012,05,19,16,26,16.70
2012,05,19,16,27,16.70
2012,05,19,16,28,16.70
2012,05,19,16,29,16.70
2012,05,19,16,30,16.70
2012,05,19,16,31,16.70
2012,05,19,16,32,16.70
2012,05,19,16,33,16.70
2012,05,19,16,34,16.60
2012,05,19,16,35,16.60
2012,05,19,16,36,16.70
2012,05,19,16,37,16.80
2012,05,19,16,38,16.80
2012,05,19,16,39,16.90
2012,05,19,16,40,16.90
2012,05,19,16,41,16.90
2012,05,19,16,42,16.70
2012,05,19,16,43,16.50
2012,05,19,16,44,16.40
2012,05,19,16,45,16.30
2012,05,19,16,46,16.20
2012,05,19,16,47,16.30
2012,05,19,16,48,16.40
2012,05,19,16,49,16.40
2012,05,19,16,50,16.40
2012,05,19,16,51,16.50
2012,05,19,16,52,16.60
2012,05,19,16,53,16.70
2012,05,19,16,54,16.60
2012,05,19,16,55,16.50
2012,05,19,16,56,16.40
2012,05,19,16,57,16.30
2012,05,19,16,58,16.20
2012,05,19,16,59,16.20
2012,05,19,17,00,16.20
2012,05,19,17,01,16.20
2012,05,19,17,02,16.30
2012,05,19,17,03,16.40
2012,05,19,17,04,16.40
2012,05,19,17,05,16.60
2012,05,19,17,06,16.60
2012,05,19,17,07,16.50
2012,05,19,17,08,16.40
2012,05,19,17,09,16.30
2012,05,19,17,10,16.30
2012,05,19,17,11,16.30
2012,05,19,17,12,16.30
2012,05,19,17,13,16.30
2012,05,19,17,14,16.30
2012,05,19,17,15,16.20
2012,05,19,17,16,16.20
2012,05,19,17,17,16.20
2012,05,19,17,18,16.20
2012,05,19,17,19,16.30
2012,05,19,17,20,16.40
2012,05,19,17,21,16.50
2012,05,19,17,22,16.50
2012,05,19,17,23,16.40
2012,05,19,17,24,16.50
2012,05,19,17,25,16.60
2012,05,19,17,26,16.60
2012,05,19,17,27,16.60
2012,05,19,17,28,16.70
2012,05,19,17,29,16.70
2012,05,19,17,30,16.50
2012,05,19,17,31,16.40
2012,05,19,17,32,16.30
2012,05,19,17,33,16.30
2012,05,19,17,34,16.30
2012,05,19,17,35,16.20
2012,05,19,17,36,16.20
2012,05,19,17,37,16.30
2012,05,19,17,38,16.30